Flag Weather past 2 weeks in Hückelhoven, North Rhine-Westphalia, Germany

Now
45 °F

Light rain. Partly sunny.


Feels Like: 40 °F
Forecast: 41 / 51 °F
Wind: 8 mph from East

Location: Geilenkirchen Airport

Current Time: Nov 27, 2014 at 11:51:02 AM

Latest Report: Nov 27, 2014 at 10:50 AM


Visibility: 6 mi

Pressure: 29.77 "Hg

Humidity: 87%

Dew point: 41 °F

Location of HückelhovenLocation

Historic Weather in Hückelhoven — Graph

°F

Hückelhoven temperature yesterday

Maximum temperature yesterday: 43 °F (at 2:50 AM)
Minimum temperature yesterday: 41 °F (at 12:50 AM)
Average temperature yesterday: 42 °F

Past Weeks' High & Low Weather Summary

 TemperatureHumidityPressure
High57 °F (Nov 13, 12:50 PM)100% (Nov 13, 4:50 AM)30.33 "Hg (Nov 13, 4:50 AM)
Low30 °F (Nov 25, 5:50 AM)63% (Nov 13, 1:50 PM)29.53 "Hg (Nov 16, 8:50 PM)
Average45 °F90%29.98 "Hg
* Reported Nov 12 10:50 AM — Nov 27 10:50 AM, Hückelhoven, Weather by CustomWeather, © 2014

Note: Actual official high and low records may vary slightly from our data, if they occured in-between our weather recording intervals... More about our weather records

Advertising

Hückelhoven weather history for previous 24 hours

 ConditionsComfort  
Time TempWeatherWind HumidityBarometerVisibility
10:50 AM
Nov 27
45 °FLight rain. Partly sunny.8 mph87%29.77 "Hg6 mi
9:50 AM45 °FPartly sunny.8 mph87%29.77 "Hg5 mi
8:50 AM43 °FBroken clouds.9 mph93%29.77 "Hg6 mi
7:50 AM43 °FPassing clouds.10 mph93%29.77 "Hg6 mi
6:50 AM43 °FPassing clouds.7 mph93%29.80 "Hg5 mi
5:50 AM43 °FPassing clouds.6 mph93%29.80 "Hg5 mi
4:50 AM43 °FPassing clouds.8 mph93%29.80 "Hg6 mi
3:50 AM45 °FPassing clouds.8 mph87%29.80 "Hg6 mi
2:50 AM43 °FPassing clouds.8 mph93%29.83 "Hg6 mi
1:50 AM43 °FPartly cloudy.9 mph93%29.83 "Hg6 mi
12:50 AM43 °FPassing clouds.10 mph93%29.86 "Hg5 mi
11:50 PM
Nov 26
43 °FPassing clouds.8 mph93%29.86 "Hg5 mi
10:50 PM43 °FPassing clouds.9 mph93%29.86 "Hg5 mi
9:50 PM43 °FPassing clouds.9 mph93%29.89 "Hg5 mi
8:50 PM43 °FOvercast.10 mph93%29.89 "Hg5 mi
7:50 PM43 °FOvercast.10 mph93%29.89 "Hg5 mi
6:50 PM43 °FPassing clouds.10 mph87%29.89 "Hg5 mi
5:50 PM43 °FPassing clouds.12 mph87%29.89 "Hg5 mi
4:50 PM43 °FPartly cloudy.14 mph87%29.89 "Hg4 mi
3:50 PM43 °FBroken clouds.12 mph87%29.92 "Hg4 mi
2:50 PM43 °FPartly sunny.13 mph87%29.92 "Hg4 mi
1:50 PM43 °FLight rain. Fog.12 mph93%29.92 "Hg3 mi
12:50 PM43 °FLight rain. Partly sunny.13 mph87%29.95 "Hg4 mi
11:50 AM43 °FSunny.14 mph81%29.95 "Hg10 mi
Weather by CustomWeather, © 2014

See weather overviewHow to use our weather pages